Location: Staunton
(38.1490°N, 79.0720°W)
Time: 01:02:39
(UTC-05:00)

ISS - Pass Details

Date: 12 November 2018
Orbit: 402 x 408 km, 51.6° (Epoch: 16 November)

Event Time Altitude Azimuth Distance (km) Brightness Sun altitude
Exits shadow 04:29:43 11° 47° (NE) 1,399 -0.6 -28.5°
Drops below altitude 10° 04:29:56 10° 51° (NE) 1,442 -0.5 -28.4°
Sets 04:32:55 0° 81° (E) 2,319 1.2 -27.9°
